Flag for U.S.A. Weather past 2 weeks in Rochester, New York, U.S.A.

Now
34 °F

Clear.


Feels Like: 28 °F
Forecast: 33 / 47 °F
Wind: 7 mph from Northwest

Location: Greater Rochester International Airport

Current Time: Apr 25, 2015 at 1:08:23 AM

Latest Report: Apr 24, 2015 at 11:54 PM


Visibility: 10 mi

Pressure: 30.01 "Hg

Humidity: 64%

Dew point: 23 °F

Location of RochesterLocation

Historic Weather in Rochester — Graph

°F

Rochester temperature yesterday

Maximum temperature yesterday: 42 °F (at 4:54 PM)
Minimum temperature yesterday: 32 °F (at 6:54 AM)
Average temperature yesterday: 36 °F

Past Weeks' High & Low Weather Summary

 TemperatureHumidityPressure
High83 °F (Apr 13, 4:54 PM)97% (Apr 17, 6:54 AM)30.44 "Hg (Apr 17, 6:54 AM)
Low32 °F (Apr 23, 3:54 AM)20% (Apr 16, 1:54 PM)29.41 "Hg (Apr 20, 4:54 PM)
Average50 °F58%29.98 "Hg
* Reported Apr 9 11:54 PM — Apr 24 11:54 PM, Rochester, Weather by CustomWeather, © 2015

Note: Actual official high and low records may vary slightly from our data, if they occured in-between our weather recording intervals... More about our weather records

Advertising

Rochester weather history for previous 24 hours

 ConditionsComfort  
Time TempWeatherWind HumidityBarometerVisibility
11:54 PM
Fri, Apr 24
34 °FClear.7 mph64%30.01 "Hg10 mi
10:54 PM35 °FClear.9 mph61%30.03 "Hg10 mi
9:54 PM36 °FClear.9 mph62%30.02 "Hg10 mi
8:54 PM37 °FBroken clouds.8 mph54%30.02 "Hg10 mi
7:54 PM39 °FBroken clouds.12 mph48%29.98 "Hg10 mi
6:54 PM42 °FPartly sunny.14 mph39%29.98 "Hg10 mi
5:54 PM42 °FPartly sunny.21 mph39%29.98 "Hg10 mi
4:54 PM42 °FPartly sunny.15 mph39%29.98 "Hg10 mi
3:54 PM41 °FMostly cloudy.12 mph43%29.98 "Hg10 mi
2:54 PM40 °FOvercast.18 mph45%29.99 "Hg10 mi
1:54 PM38 °FMostly cloudy.15 mph51%29.99 "Hg10 mi
12:54 PM37 °FOvercast.12 mph57%29.99 "Hg10 mi
11:54 AM36 °FLight snow. Mostly cloudy.18 mph59%29.99 "Hg9 mi
10:54 AM35 °FLight snow. Cloudy.12 mph64%29.99 "Hg9 mi
9:54 AM34 °FLight snow. Cloudy.13 mph73%29.99 "Hg9 mi
8:54 AM34 °FLight snow. Mostly cloudy.16 mph64%29.99 "Hg9 mi
7:54 AM33 °FLight snow. More clouds than sun.13 mph72%29.98 "Hg9 mi
6:54 AM32 °FLight snow. Mostly cloudy.12 mph75%29.97 "Hg8 mi
5:54 AM33 °FLight snow. Mostly cloudy.13 mph66%29.95 "Hg9 mi
4:54 AM34 °FLight snow. Mostly cloudy.15 mph64%29.95 "Hg10 mi
3:54 AM34 °FOvercast.16 mph64%29.95 "Hg9 mi
2:54 AM34 °FLight snow. Overcast.12 mph64%29.93 "Hg9 mi
1:54 AM34 °FLight snow. Overcast.13 mph59%29.93 "Hg9 mi
Weather by CustomWeather, © 2015

See weather overviewHow to use our weather pages